Find Kineis-5C

NORAD ID: 62081 Int'l Des: 2024-219 Owner: KINEIS Country: F operational
LEOCIRCULARRETROGRADESSO

实时位置

正在加载3D地球...

关于 Kineis-5C

正在加载描述...

即将过境

Passes for default location (London). Set your location on the main map for personalized predictions.

高度历史

Loading altitude history...

两行轨道根数

1 62081U 24219A 26105.94171903 -.00000092 00000-0 -68426-5 0 9997
2 62081 97.9168 266.5284 0005037 100.1309 260.0467 14.72314163 74593
Epoch: Apr 15, 2026 • Age: 7 hours

当前状态

高度 659.2 km
速度 7.53 km/s
星下点 -11.98°S, 150.84°E
发射日期 Nov 25, 2024
运行时间 1.3 years
类型 other

技术详情

分类 Payload
质量 28.00 kg
干质量 28.00 kg
总质量 28.00 kg
长度 0.40 m
直径 0.20 m
跨度 1.60 m
形状 Box+ 2 pan + ant
制造商 KINEIS
平台类型 Cubesat 16U
阶段状态 In Orbit
所有者/国家 KINEIS/F

Most Searched